EW7937 Weather Reports


Display with metric or nautical units.
time (UTC)temp
F
wind
direction
speed
MPH
gust
MPH
rain 1hr
in
rain 24hr
in
rain mn
in
humidity
%
barometer
mb
20210411004427 76 283 9.0 12.0 0.00 0.00 0.00 36 1013.6
20210411003912 76 220 5.0 10.0 0.00 0.00 0.00 36 1013.7
20210411003422 77 317 4.0 11.0 0.00 0.00 0.00 34 1013.8
20210411002904 77 354 4.0 11.0 0.00 0.00 0.00 36 1013.8
20210411002420 76 295 3.0 6.0 0.00 0.00 0.00 36 1013.9
20210411001903 76 296 1.0 10.0 0.00 0.00 0.00 36 1013.9
20210411001405 77 264 3.0 12.0 0.00 0.00 0.00 35 1014.0
20210411000908 77 289 6.0 12.0 0.00 0.00 0.00 35 1014.1
20210411000414 77 268 4.0 9.0 0.00 0.00 0.00 36 1014.1
20210410235909 76 241 4.0 9.0 0.00 0.00 0.00 36 1014.1
20210410235403 76 288 1.0 7.0 0.00 0.00 0.00 35 1014.2
20210410234903 77 0 4.0 10.0 0.00 0.00 0.00 34 1014.3
20210410234406 77 302 1.0 10.0 0.00 0.00 0.00 36 1014.3
20210410233910 76 344 4.0 7.0 0.00 0.00 0.00 36 1014.3
20210410233409 75 252 0.0 1.0 0.00 0.00 0.00 35 1014.5
20210410232902 76 281 0.0 9.0 0.00 0.00 0.00 34 1014.6
20210410232408 77 317 0.0 11.0 0.00 0.00 0.00 34 1014.6
20210410231906 77 269 2.0 11.0 0.00 0.00 0.00 34 1014.7
20210410231425 77 252 5.0 9.0 0.00 0.00 0.00 33 1014.8
20210410230908 77 290 2.0 9.0 0.00 0.00 0.00 34 1014.8
20210410230402 76 37 5.0 9.0 0.00 0.00 0.00 33 1014.9
20210410225901 76 330 1.0 9.0 0.00 0.00 0.00 35 1015.0
20210410225401 76 269 3.0 9.0 0.00 0.00 0.00 34 1015.1
20210410224901 76 293 4.0 9.0 0.00 0.00 0.00 34 1015.2
20210410224401 76 251 3.0 7.0 0.00 0.00 0.00 35 1015.2
20210410223900 75 303 0.0 7.0 0.00 0.00 0.00 36 1015.3
20210410223400 76 248 1.0 7.0 0.00 0.00 0.00 35 1015.4
20210410223021 77 300 4.0 7.0 0.00 0.00 0.00 34 1015.5
20210410222816 76 313 1.0 5.0 0.00 0.00 0.00 33 1015.5
20210410222032 76 326 1.0 3.0 0.00 0.00 0.00 34 1015.5
20210410221458 76 354 0.0 7.0 0.00 0.00 0.00 32 1015.7
20210410220858 76 348 0.0 7.0 0.00 0.00 0.00 35 1015.8
20210410220359 75 254 2.0 5.0 0.00 0.00 0.00 36 1015.9
20210410220000 76 333 1.0 9.0 0.00 0.00 0.00 33 1015.9
20210410215904 77 0 3.0 9.0 0.00 0.00 0.00 35 1016.1
20210410215141 75 6 4.0 9.0 0.00 0.00 0.00 34 1016.0
20210410214400 75 193 1.0 5.0 0.00 0.00 0.00 36 1016.3
20210410213903 76 0 2.0 5.0 0.00 0.00 0.00 38 1016.3
20210410213408 74 41 1.0 6.0 0.00 0.00 0.00 36 1016.4
20210410212950 74 295 3.0 6.0 0.00 0.00 0.00 40 1016.4
20210410212825 73 220 0.0 10.0 0.00 0.00 0.00 39 1016.6
20210410211958 74 336 3.0 10.0 0.00 0.00 0.00 38 1016.6
20210410211401 74 299 0.0 1.0 0.00 0.00 0.00 39 1016.6
20210410210859 74 34 0.0 1.0 0.00 0.00 0.00 36 1016.8
20210410210413 73 326 0.0 2.0 0.00 0.00 0.00 39 1016.9
20210410205953 73 345 0.0 5.0 0.00 0.00 0.00 40 1017.1
20210410205238 73 65 2.0 5.0 0.00 0.00 0.00 38 1017.0
20210410204358 73 0 2.0 6.0 0.00 0.00 0.00 42 1017.1
20210410203903 72 27 1.0 6.0 0.00 0.00 0.00 39 1017.2
20210410203411 72 14 1.0 6.0 0.00 0.00 0.00 41 1017.1
20210410203142 71 188 0.0 3.0 0.00 0.00 0.00 41 1017.1
20210410202659 71 288 0.0 3.0 0.00 0.00 0.00 45 1017.3
20210410201532 70 188 0.0 1.0 0.00 0.00 0.00 45 1017.3
20210410200907 69 321 0.0 1.0 0.00 0.00 0.00 45 1017.4
20210410200528 69 258 0.0 1.0 0.00 0.00 0.00 46 1017.6
20210410200126 69 254 0.0 0.0 0.00 0.00 0.00 47 1017.7
20210410195115 69 216 0.0 1.0 0.00 0.00 0.00 45 1017.8
20210410194400 69 281 0.0 3.0 0.00 0.00 0.00 50 1017.9
20210410193901 68 188 0.0 3.0 0.00 0.00 0.00 47 1017.9
20210410193400 69 241 0.0 6.0 0.00 0.00 0.00 47 1018.1
20210410192922 67 258 0.0 6.0 0.00 0.00 0.00 52 1018.2
20210410192820 67 151 1.0 3.0 0.00 0.00 0.00 50 1018.4
20210410192038 68 245 1.0 2.0 0.00 0.00 0.00 46 1018.3
20210410191357 68 285 0.0 1.0 0.00 0.00 0.00 51 1018.3
20210410190856 67 257 0.0 0.0 0.00 0.00 0.00 50 1018.4
20210410190532 67 276 0.0 0.0 0.00 0.00 0.00 52 1018.4
20210410190104 67 71 0.0 0.0 0.00 0.00 0.00 51 1018.5
20210410185901 67 59 0.0 7.0 0.00 0.00 0.00 48 1018.6
20210410185053 66 32 0.0 7.0 0.00 0.00 0.00 51 1018.7
20210410184358 66 82 4.0 7.0 0.00 0.00 0.00 49 1018.7
20210410183854 65 340 2.0 4.0 0.00 0.00 0.00 52 1018.8
20210410183354 65 299 0.0 5.0 0.00 0.00 0.00 50 1018.8
20210410182937 65 1 1.0 7.0 0.00 0.00 0.00 52 1018.9
20210410182759 65 0 3.0 7.0 0.00 0.00 0.00 52 1018.9
20210410182047 63 286 0.0 2.0 0.00 0.00 0.00 57 1018.9
20210410181400 63 286 0.0 6.0 0.00 0.00 0.00 53 1019.0
20210410180856 64 317 0.0 6.0 0.00 0.00 0.00 53 1019.1
20210410180403 63 258 0.0 9.0 0.00 0.00 0.00 56 1019.0
20210410180055 62 293 0.0 9.0 0.00 0.00 0.00 55 1019.1
20210410175840 62 272 0.0 7.0 0.00 0.00 0.00 54 1019.1
20210410175048 63 307 0.0 7.0 0.00 0.00 0.00 58 1019.1
20210410174353 62 264 0.0 6.0 0.00 0.00 0.00 57 1019.1
20210410173901 61 313 1.0 6.0 0.00 0.00 0.00 56 1019.1
20210410173352 61 254 0.0 5.0 0.00 0.00 0.00 57 1019.0
20210410172910 60 264 1.0 5.0 0.00 0.00 0.00 58 1018.9
20210410172753 60 247 1.0 11.0 0.00 0.00 0.00 57 1018.9
20210410172030 61 303 3.0 11.0 0.00 0.00 0.00 59 1018.8
20210410171354 60 231 2.0 6.0 0.00 0.00 0.00 60 1018.7
20210410170853 60 290 0.0 2.0 0.00 0.00 0.00 61 1018.5
20210410170400 60 327 0.0 6.0 0.00 0.00 0.00 61 1018.4
20210410170108 59 337 1.0 6.0 0.00 0.00 0.00 61 1018.3
20210410165912 59 293 0.0 5.0 0.00 0.00 0.00 63 1018.3
20210410165235 58 309 0.0 3.0 0.00 0.00 0.00 62 1018.4
20210410164354 58 306 0.0 9.0 0.00 0.00 0.00 65 1018.3
20210410163851 57 314 1.0 9.0 0.00 0.00 0.00 64 1018.1
20210410163413 56 309 0.0 7.0 0.00 0.00 0.00 67 1018.0
20210410163042 56 285 0.0 7.0 0.00 0.00 0.00 65 1018.1
20210410162828 56 326 2.0 7.0 0.00 0.00 0.00 67 1018.1
20210410162020 55 321 0.0 7.0 0.00 0.00 0.00 69 1018.2
20210410161353 54 274 2.0 7.0 0.00 0.00 0.00 68 1018.4
20210410160853 54 358 0.0 6.0 0.00 0.00 0.00 70 1018.2
20210410160353 54 303 0.0 7.0 0.00 0.00 0.00 70 1018.3
20210410160056 53 298 3.0 7.0 0.00 0.00 0.00 70 1018.0
20210410155800 52 338 0.0 9.0 0.00 0.00 0.00 72 1018.0
20210410155022 52 299 2.0 9.0 0.00 0.00 0.00 72 1018.1
20210410154351 52 309 3.0 10.0 0.00 0.00 0.00 72 1018.0
20210410153853 51 307 0.0 11.0 0.00 0.00 0.00 73 1017.9
20210410153353 51 323 5.0 12.0 0.00 0.00 0.00 73 1017.8
20210410152859 51 345 0.0 12.0 0.00 0.00 0.00 74 1017.8
20210410152735 50 329 1.0 9.0 0.00 0.00 0.00 76 1017.9
20210410151954 50 303 1.0 9.0 0.00 0.00 0.00 75 1017.9
20210410151354 49 299 2.0 13.0 0.00 0.00 0.00 77 1018.0
20210410150854 49 338 7.0 13.0 0.00 0.00 0.00 77 1018.0
20210410150556 48 317 1.0 11.0 0.00 0.00 0.00 79 1018.0
20210410150235 47 331 0.0 10.0 0.00 0.00 0.00 79 1018.0
20210410150039 47 293 7.0 10.0 0.00 0.00 0.00 79 1017.9
20210410145110 47 293 2.0 9.0 0.00 0.00 0.00 79 1017.9
20210410144353 47 290 2.0 9.0 0.00 0.00 0.00 79 1017.8
20210410143850 47 276 1.0 4.0 0.00 0.00 0.00 79 1017.8
20210410143349 47 282 0.0 4.0 0.00 0.00 0.00 79 1017.8
20210410142926 47 289 0.0 4.0 0.00 0.00 0.00 79 1017.9
20210410142803 47 290 0.0 4.0 0.00 0.00 0.00 79 1017.9
20210410141938 46 302 0.0 5.0 0.00 0.00 0.00 79 1017.8
20210410141349 46 310 0.0 5.0 0.00 0.00 0.00 78 1017.9
20210410140849 46 265 0.0 0.0 0.00 0.00 0.00 78 1017.8
20210410140445 46 300 0.0 2.0 0.00 0.00 0.00 78 1018.0
20210410140219 46 276 0.0 7.0 0.00 0.00 0.00 78 1018.0
20210410135924 46 288 1.0 9.0 0.00 0.00 0.00 78 1017.9
20210410135130 46 296 2.0 9.0 0.00 0.00 0.00 77 1017.8
20210410134346 47 313 0.0 7.0 0.00 0.00 0.00 77 1017.7
20210410133856 47 306 0.0 9.0 0.00 0.00 0.00 76 1017.7
20210410133404 47 333 0.0 9.0 0.00 0.00 0.00 76 1017.8
20210410132831 47 1 0.0 5.0 0.00 0.00 0.00 75 1017.7
20210410132034 48 7 0.0 5.0 0.00 0.00 0.00 74 1017.7
20210410131348 48 321 0.0 10.0 0.00 0.00 0.00 74 1017.7
20210410130853 48 336 0.0 10.0 0.00 0.00 0.00 74 1017.5
20210410130349 48 344 0.0 2.0 0.00 0.00 0.00 74 1017.6
20210410125319 48 344 0.0 7.0 0.00 0.00 0.00 74 1017.4
20210410124356 48 340 1.0 9.0 0.00 0.00 0.00 74 1017.5
20210410123845 48 334 1.0 11.0 0.00 0.00 0.00 74 1017.5
20210410123519 48 295 1.0 9.0 0.00 0.00 0.00 75 1017.5
20210410122936 48 289 0.0 9.0 0.00 0.00 0.00 75 1017.7
20210410121847 48 310 3.0 9.0 0.00 0.00 0.00 75 1017.7
20210410121346 48 264 0.0 4.0 0.00 0.00 0.00 75 1017.7
20210410120847 48 281 0.0 3.0 0.00 0.00 0.00 74 1017.7
20210410120345 49 286 0.0 0.0 0.00 0.00 0.00 74 1017.7
20210410120133 49 292 0.0 3.0 0.00 0.00 0.00 73 1017.7
20210410115838 49 285 0.0 10.0 0.00 0.00 0.00 73 1017.6
20210410115052 49 285 2.0 10.0 0.00 0.00 0.00 73 1017.6
20210410114345 49 290 0.0 5.0 0.00 0.00 0.00 72 1017.6
20210410113848 49 282 0.0 3.0 0.00 0.00 0.00 72 1017.6
20210410113347 49 272 0.0 0.0 0.00 0.00 0.00 71 1017.6
20210410112910 49 317 0.0 1.0 0.00 0.00 0.00 70 1017.7
20210410112736 50 303 0.0 7.0 0.00 0.00 0.00 70 1017.6
20210410112118 50 313 0.0 7.0 0.00 0.00 0.00 70 1017.6
20210410111353 50 292 0.0 6.0 0.00 0.00 0.00 69 1017.8
20210410110847 50 326 1.0 6.0 0.00 0.00 0.00 68 1017.8
20210410110346 50 316 0.0 1.0 0.00 0.00 0.00 68 1017.8
20210410105929 51 310 0.0 1.0 0.00 0.00 0.00 68 1017.8
20210410105752 51 309 0.0 3.0 0.00 0.00 0.00 67 1017.9
20210410104923 51 300 0.0 10.0 0.00 0.00 0.00 67 1017.9
20210410104345 51 321 1.0 10.0 0.00 0.00 0.00 66 1017.9
20210410103846 51 347 1.0 9.0 0.00 0.00 0.00 66 1017.8
20210410103344 51 319 0.0 7.0 0.00 0.00 0.00 66 1017.9
20210410102911 51 310 0.0 9.0 0.00 0.00 0.00 65 1017.9
20210410102754 51 298 2.0 12.0 0.00 0.00 0.00 65 1017.9
20210410101958 51 309 2.0 12.0 0.00 0.00 0.00 65 1018.0
20210410101343 52 299 0.0 6.0 0.00 0.00 0.00 64 1018.1
20210410100847 52 313 0.0 6.0 0.00 0.00 0.00 64 1018.1
20210410100353 52 298 2.0 10.0 0.00 0.00 0.00 63 1018.1
20210410100023 52 305 1.0 10.0 0.00 0.00 0.00 63 1018.0
20210410095839 52 309 0.0 7.0 0.00 0.00 0.00 63 1018.0
20210410095129 52 324 0.0 10.0 0.00 0.00 0.00 63 1018.0
20210410094346 53 309 3.0 11.0 0.00 0.00 0.00 62 1018.0
20210410093843 53 298 5.0 11.0 0.00 0.00 0.00 62 1018.0
20210410093347 53 300 0.0 6.0 0.00 0.00 0.00 61 1018.1
20210410092844 53 288 0.0 10.0 0.00 0.00 0.00 61 1018.1
20210410092635 53 316 1.0 10.0 0.00 0.00 0.00 61 1018.1
20210410091949 53 302 0.0 9.0 0.00 0.00 0.00 60 1018.3
20210410091344 54 299 0.0 9.0 0.00 0.00 0.00 60 1018.3
20210410090842 54 302 3.0 6.0 0.00 0.00 0.00 60 1018.3
20210410090345 54 286 0.0 13.0 0.00 0.00 0.00 60 1018.2
20210410085912 54 302 4.0 13.0 0.00 0.00 0.00 59 1018.3
20210410085725 54 305 0.0 10.0 0.00 0.00 0.00 59 1018.3
20210410084941 54 292 1.0 10.0 0.00 0.00 0.00 59 1018.4
20210410084343 55 279 4.0 9.0 0.00 0.00 0.00 59 1018.5
20210410083844 55 307 5.0 9.0 0.00 0.00 0.00 59 1018.5
20210410083348 55 254 3.0 10.0 0.00 0.00 0.00 58 1018.5
20210410082842 55 282 2.0 10.0 0.00 0.00 0.00 58 1018.5
20210410082540 55 293 0.0 9.0 0.00 0.00 0.00 58 1018.5
20210410081908 55 298 0.0 12.0 0.00 0.00 0.00 57 1018.5
20210410081340 56 307 2.0 12.0 0.00 0.00 0.00 57 1018.5
20210410080843 56 347 1.0 10.0 0.00 0.00 0.00 57 1018.5
20210410080346 56 310 0.0 7.0 0.00 0.00 0.00 57 1018.4
20210410080040 56 305 0.0 7.0 0.00 0.00 0.00 56 1018.5
20210410075829 56 307 0.0 12.0 0.00 0.00 0.00 56 1018.5
20210410075031 57 281 3.0 14.0 0.00 0.00 0.00 56 1018.5
20210410074341 57 312 4.0 15.0 0.00 0.00 0.00 55 1018.6
20210410073840 57 295 9.0 15.0 0.00 0.00 0.00 55 1018.6
20210410073341 57 313 9.0 15.0 0.00 0.00 0.00 54 1018.6
20210410072842 57 324 7.0 12.0 0.00 0.00 0.00 54 1018.7
20210410072631 58 344 3.0 12.0 0.00 0.00 0.00 54 1018.8
20210410071904 58 323 6.0 11.0 0.00 0.00 0.00 54 1018.7
20210410071339 58 338 5.0 11.0 0.00 0.00 0.00 55 1018.8
20210410070839 58 295 5.0 13.0 0.00 0.00 0.00 55 1018.7
20210410070339 58 312 4.0 13.0 0.00 0.00 0.00 56 1018.7
20210410065937 58 326 2.0 13.0 0.00 0.00 0.00 56 1018.5
20210410065817 58 321 6.0 14.0 0.00 0.00 0.00 56 1018.4
20210410064946 59 324 6.0 14.0 0.00 0.00 0.00 56 1018.5
20210410064347 59 323 10.0 18.0 0.00 0.00 0.00 57 1018.4
20210410063840 59 298 10.0 18.0 0.00 0.00 0.00 57 1018.5
20210410063545 59 286 9.0 14.0 0.00 0.00 0.00 57 1018.3
20210410063211 60 321 5.0 14.0 0.00 0.00 0.00 57 1018.3
20210410062912 60 305 9.0 15.0 0.00 0.00 0.00 57 1018.2
20210410061940 60 285 3.0 15.0 0.00 0.00 0.00 57 1018.2
20210410061339 60 306 7.0 13.0 0.00 0.00 0.00 57 1018.1
20210410060838 60 282 5.0 13.0 0.00 0.00 0.00 58 1018.2
20210410060353 61 312 8.0 14.0 0.00 0.00 0.00 57 1018.2
20210410060112 61 285 6.0 15.0 0.00 0.00 0.00 57 1018.1
20210410055856 61 295 7.0 15.0 0.00 0.00 0.00 57 1018.0
20210410055105 62 282 7.0 12.0 0.00 0.00 0.00 56 1017.9
20210410054339 62 271 5.0 15.0 0.00 0.00 0.00 55 1018.0
20210410053844 62 296 7.0 15.0 0.00 0.00 0.00 54 1017.9
20210410053343 63 266 6.0 13.0 0.00 0.00 0.00 52 1017.9
20210410052958 63 262 8.0 13.0 0.00 0.00 0.00 50 1017.8
20210410052758 64 281 6.0 11.0 0.00 0.00 0.00 47 1017.9
20210410051947 64 331 2.0 9.0 0.00 0.00 0.00 46 1017.8
20210410051335 65 292 2.0 7.0 0.00 0.00 0.00 45 1017.7
20210410050836 65 296 4.0 7.0 0.00 0.00 0.00 45 1017.7
20210410050336 65 293 1.0 9.0 0.00 0.00 0.00 45 1017.6
20210410050054 65 274 4.0 11.0 0.00 0.00 0.00 44 1017.6
20210410045849 66 313 1.0 11.0 0.00 0.00 0.00 43 1017.4
20210410044931 66 312 3.0 10.0 0.00 0.00 0.00 43 1017.5
20210410044337 66 268 4.0 10.0 0.00 0.00 0.00 43 1017.4
20210410043836 66 307 4.0 10.0 0.00 0.00 0.00 42 1017.4
20210410043340 67 317 6.0 10.0 0.00 0.00 0.00 42 1017.3
20210410042843 67 323 5.0 10.0 0.00 0.00 0.00 42 1017.3
20210410042713 67 309 2.0 10.0 0.00 0.00 0.00 41 1017.3
20210410041913 67 313 5.0 11.0 0.00 0.00 0.00 41 1017.1
20210410041337 68 317 4.0 11.0 0.00 0.00 0.00 40 1017.1
20210410040835 68 307 4.0 9.0 0.00 0.00 0.00 40 1017.0
20210410040335 68 305 4.0 7.0 0.00 0.00 0.00 40 1016.9
20210410040047 68 306 3.0 6.0 0.00 0.00 0.00 39 1016.9
20210410035854 68 302 0.0 3.0 0.00 0.00 0.00 39 1016.8
20210410034927 68 306 0.0 5.0 0.00 0.00 0.00 39 1016.7
20210410034340 68 305 1.0 5.0 0.00 0.00 0.00 38 1016.6
20210410033834 69 309 1.0 5.0 0.00 0.00 0.00 37 1016.6
20210410033337 69 298 1.0 6.0 0.00 0.00 0.00 37 1016.6
20210410033022 69 314 3.0 6.0 0.00 0.00 0.00 36 1016.4
20210410032845 69 299 1.0 5.0 0.00 0.00 0.00 37 1016.4
20210410032044 70 283 2.0 5.0 0.00 0.00 0.00 36 1016.3
20210410031340 70 302 1.0 5.0 0.00 0.00 0.00 35 1016.3
20210410031039 70 299 2.0 5.0 0.00 0.00 0.00 35 1016.2
20210410030647 71 309 0.0 5.0 0.00 0.00 0.00 35 1016.3
20210410030137 71 313 2.0 5.0 0.00 0.00 0.00 34 1016.1
20210410025926 71 310 1.0 6.0 0.00 0.00 0.00 34 1016.1
20210410025026 72 312 3.0 7.0 0.00 0.00 0.00 33 1016.1
20210410024335 72 307 4.0 9.0 0.00 0.00 0.00 33 1016.1
20210410023835 73 309 5.0 11.0 0.00 0.00 0.00 33 1016.0
20210410023333 73 323 5.0 11.0 0.00 0.00 0.00 32 1015.9
20210410022910 73 316 2.0 11.0 0.00 0.00 0.00 31 1015.9
20210410022722 74 285 4.0 10.0 0.00 0.00 0.00 31 1016.0
20210410021911 74 296 6.0 10.0 0.00 0.00 0.00 30 1015.8
20210410021337 74 288 2.0 10.0 0.00 0.00 0.00 30 1015.8
20210410020838 74 278 3.0 10.0 0.00 0.00 0.00 30 1015.9
20210410020333 75 305 4.0 10.0 0.00 0.00 0.00 29 1015.9
20210410015931 75 312 4.0 10.0 0.00 0.00 0.00 29 1015.8
20210410015758 76 327 6.0 11.0 0.00 0.00 0.00 29 1015.7
20210410014904 76 303 6.0 11.0 0.00 0.00 0.00 28 1015.8
20210410014334 76 310 4.0 10.0 0.00 0.00 0.00 29 1015.7
20210410013835 76 290 6.0 10.0 0.00 0.00 0.00 28 1015.7
20210410013333 77 309 2.0 9.0 0.00 0.00 0.00 28 1015.7
20210410012940 77 306 5.0 11.0 0.00 0.00 0.00 27 1015.7
20210410012710 78 329 5.0 12.0 0.00 0.00 0.00 27 1015.7
20210410011953 78 331 7.0 13.0 0.00 0.00 0.00 27 1015.7
20210410011333 78 324 6.0 13.0 0.00 0.00 0.00 26 1015.7
20210410010832 78 348 3.0 10.0 0.00 0.00 0.00 26 1015.6
20210410010333 79 309 4.0 10.0 0.00 0.00 0.00 26 1015.7
20210410005115 79 350 4.0 11.0 0.00 0.00 0.00 25 1015.7